731  
ASCA42 TJSJ 272110  
RWRPR  
PUERTO RICO/U.S. VIRGIN ISLANDS HOURLY WEATHER ROUNDUP  
NATIONAL WEATHER SERVICE SAN JUAN PR  
500 PM AST THU FEB 27 2020  
 
PRZ001>002-007>008-010-272200-  
PUERTO RICO  
 
CITY SKY/WX TMP DP RH WIND PRES REMARKS
 
SAN JUAN LMM MOSUNNY 81 66 61 NE13 30.01R  
AGUADILLA SUNNY 81 N/A N/A NE14 30.03R  
CEIBA MOSUNNY 81 70 69 E9 30.02S  

 
 
VIZ001>002-272200-  
U.S. VIRGIN ISLANDS  
 
CITY SKY/WX TMP DP RH WIND PRES REMARKS
 
CHARLOTTE AMA MOSUNNY 81 70 69 SE10 30.00R  
CHRISTIANSTED MOSUNNY 82 66 57 E14 30.01R  

 
 
HOURLY WEATHER ROUNDUP FOR THE NEWS MEDIA  
 
CITY SKY/WX TMP DP RH WIND PRES REMARKS
 
ORLANDO FAIR 62 29 28 W14 30.13F  
NEW YORK FAIR 41 18 39 W29G43 29.62R  
NEWARK FAIR 41 12 30 W29G37 29.62R  
CHICAGO PTSUNNY 31 13 47 W17G24 30.00S WCI 19  
HARTFORD PTSUNNY 42 24 49 W21G36 29.41R  
BOSTON PTSUNNY 42 20 41 W30G44 29.38R  
DALLAS FAIR 59 21 23 SW8G16 30.26F  
PHILADELPHIA FAIR 42 13 30 W21G31 29.74R  
LOS ANGELES PTSUNNY 83 31 15 W6 30.13F  
WASHINGTON DC FAIR 40 17 39 NW21G28 29.86S WCI 30  
 
CLICK HERE TO GO TO PREVIOUS BULLETINS.

The Nexlab PR Page Main Text Page